Dallas Love, TX

1:50 PM CDT on June 23, 2017 (GMT -0500)
Dallas Love

Weather History for KDAL - June, 2010

Change the Weather History Date:

Monday, June 21, 2010

  Actual Average Record
Temperature  
Mean Temperature 90 °F -  
Max Temperature 98 °F 89 °F 100 °F (1998)
Min Temperature 82 °F 71 °F 68 °F (2011)
Cooling Degree Days 25    
Growing Degree Days 40 (Base 50)    
Moisture  
Dew Point 68 °F    
Average Humidity 49    
Maximum Humidity 69    
Minimum Humidity 34    
Precipitation  
Precipitation 0.00 in - - ()
Sea Level Pressure  
Sea Level Pressure 29.94 in    
Wind  
Wind Speed 11 mph (South)    
Max Wind Speed 20 mph    
Max Gust Speed 25 mph    
Visibility 10 miles    
Events      
Averages and records for this station are not official NWS values.
T = Trace of Precipitation, MM = Missing Value Source: NWS Daily Summary

Daily Weather History Graph

Daily Weather History Graph

Search for Another Location

Airport or City:

Trip Planner

Search our weather history database for the weather conditions in past years. The results will help you decide how hot, cold, wet, or windy it might be!

Date:

Astronomy

Jun. 21, 2010 Rise Set
Actual Time 6:19 AM CDT 8:38 PM CDT
Civil Twilight 5:50 AM CDT 9:07 PM CDT
Nautical Twilight 5:15 AM CDT 9:42 PM CDT
Astronomical Twilight 4:37 AM CDT 10:20 PM CDT
Moon 4:21 PM CDT (6/21) 2:22 AM CDT (6/21)
Length of Visible Light 15h 16m
Length of Day
14h 19m
Waxing Gibbous, 77% of the Moon is Illuminated
Jun 21
Waxing Gibbous
Jun 26
Full
Jul 4
Last Quarter
Jul 11
New
Jul 18
First Quarter

Hourly Weather History & Observations

Time (CDT) Temp. Heat Index Dew Point Humidity Pressure Visibility Wind Dir Wind Speed Gust Speed Precip Events Conditions
12:53 AM 87.1 °F 92.0 °F 70.0 °F 57% 29.93 in 10.0 mi SSE 11.5 mph - N/A   Partly Cloudy
1:53 AM 84.9 °F 89.4 °F 70.0 °F 61% 29.94 in 10.0 mi South 8.1 mph - N/A   Scattered Clouds
2:53 AM 84.9 °F 89.4 °F 70.0 °F 61% 29.92 in 10.0 mi South 10.4 mph - N/A   Scattered Clouds
3:53 AM 82.9 °F 87.5 °F 71.1 °F 67% 29.93 in 10.0 mi South 9.2 mph - N/A   Scattered Clouds
4:53 AM 82.0 °F 86.3 °F 71.1 °F 69% 29.93 in 10.0 mi South 9.2 mph - N/A   Mostly Cloudy
5:53 AM 82.0 °F 85.9 °F 70.0 °F 67% 29.95 in 10.0 mi South 6.9 mph - N/A   Scattered Clouds
7:53 AM 82.9 °F 86.5 °F 69.1 °F 63% 29.98 in 10.0 mi South 5.8 mph - N/A   Scattered Clouds
8:53 AM 86.0 °F 88.2 °F 66.0 °F 51% 30.00 in 10.0 mi SSW 8.1 mph - N/A   Mostly Cloudy
9:53 AM 88.0 °F 90.7 °F 66.9 °F 49% 29.99 in 10.0 mi SSW 5.8 mph - N/A   Scattered Clouds
10:53 AM 91.9 °F 93.3 °F 64.0 °F 39% 29.99 in 10.0 mi South 12.7 mph - N/A   Scattered Clouds
11:53 AM 95.0 °F 97.4 °F 64.9 °F 37% 29.98 in 10.0 mi South 8.1 mph 21.9 mph N/A   Partly Cloudy
12:53 PM 96.1 °F 98.8 °F 64.9 °F 36% 29.98 in 10.0 mi South 11.5 mph - N/A   Scattered Clouds
1:53 PM 97.0 °F 99.9 °F 64.9 °F 35% 29.96 in 10.0 mi SSE 8.1 mph 18.4 mph N/A   Scattered Clouds
2:53 PM 97.0 °F 99.9 °F 64.9 °F 35% 29.94 in 10.0 mi SSE 15.0 mph 20.7 mph N/A   Scattered Clouds
3:53 PM 98.1 °F 101.2 °F 64.9 °F 34% 29.93 in 10.0 mi South 13.8 mph 21.9 mph N/A   Partly Cloudy
4:53 PM 98.1 °F 101.8 °F 66.0 °F 35% 29.91 in 10.0 mi South 16.1 mph - N/A   Partly Cloudy
5:53 PM 97.0 °F 100.4 °F 66.0 °F 36% 29.89 in 10.0 mi South 17.3 mph 25.3 mph N/A   Partly Cloudy
6:53 PM 96.1 °F 99.9 °F 66.9 °F 38% 29.89 in 10.0 mi South 19.6 mph 24.2 mph N/A   Clear
7:53 PM 93.9 °F 99.1 °F 69.1 °F 44% 29.90 in 10.0 mi South 17.3 mph 21.9 mph N/A   Clear
8:53 PM 91.0 °F 95.6 °F 69.1 °F 48% 29.91 in 10.0 mi South 11.5 mph - N/A   Clear
9:53 PM 89.1 °F 93.7 °F 69.1 °F 52% 29.93 in 10.0 mi South 10.4 mph - N/A   Clear
10:53 PM 88.0 °F 92.1 °F 69.1 °F 53% 29.95 in 10.0 mi South 11.5 mph - N/A   Clear
11:53 PM 87.1 °F 92.0 °F 70.0 °F 57% 29.95 in 10.0 mi South 10.4 mph - N/A   Clear